This is the latest recevied weather packets stored in our database for station/object KC5DAQ-22. If no packets are shown the sender has not sent any weather packets the latest 10 day(s).
| Time | Temp. | Humidity | Pressure | Rain* | Wind** | Luminosity | Snow |
|---|---|---|---|---|---|---|---|
| 1778260502 | 22.22° C | 87% | 1010.1 hPa | 0 mm | - | 250 W/m² | - |
| 1778260443 | 22.22° C | 87% | 1010.2 hPa | 0 mm | - | 271 W/m² | - |
| 1778260383 | 22.22° C | 87% | 1010.2 hPa | 0 mm | - | 269 W/m² | - |
| 1778260322 | 22.22° C | 86% | 1010.2 hPa | 0 mm | - | 227 W/m² | - |
| 1778260263 | 22.22° C | 86% | 1010.2 hPa | 0 mm | - | 223 W/m² | - |
| 1778260202 | 22.22° C | 87% | 1010.1 hPa | 0 mm | - | 234 W/m² | - |
| 1778260142 | 22.22° C | 87% | 1010.1 hPa | 0 mm | - | 255 W/m² | - |
| 1778260083 | 22.22° C | 87% | 1010.1 hPa | 0 mm | - | 299 W/m² | - |
| 1778260022 | 22.22° C | 87% | 1010.1 hPa | 0 mm | - | 346 W/m² | - |
| 1778259964 | 21.67° C | 87% | 1010.1 hPa | 0 mm | - | 380 W/m² | - |
| 1778259900 | 21.67° C | 87% | 1010.1 hPa | 0 mm | - | 378 W/m² | - |
| 1778259838 | 21.67° C | 87% | 1010.1 hPa | 0 mm | - | 368 W/m² | - |
| 1778259773 | 21.67° C | 87% | 1010.3 hPa | 0 mm | - | 350 W/m² | - |
| 1778259705 | 21.67° C | 87% | 1010.2 hPa | 0 mm | - | 350 W/m² | - |
| 1778259646 | 21.67° C | 87% | 1010.2 hPa | 0 mm | - | 353 W/m² | - |
| 1778259586 | 21.67° C | 87% | 1010.2 hPa | 0 mm | - | 359 W/m² | - |
| 1778259526 | 21.67° C | 88% | 1010.1 hPa | 0 mm | - | 362 W/m² | - |
| 1778259466 | 21.67° C | 88% | 1010.2 hPa | 0 mm | - | 361 W/m² | - |
| 1778259405 | 21.67° C | 88% | 1010.2 hPa | 0 mm | - | 353 W/m² | - |
| 1778259347 | 21.67° C | 88% | 1010.2 hPa | 0 mm | - | 329 W/m² | - |
| 1778259285 | 21.67° C | 88% | 1010.2 hPa | 0 mm | - | 317 W/m² | - |
| 1778259226 | 21.67° C | 88% | 1010.3 hPa | 0 mm | - | 309 W/m² | - |
| 1778259168 | 21.67° C | 88% | 1010.3 hPa | 0 mm | - | 308 W/m² | - |
| 1778259106 | 21.11° C | 88% | 1010.3 hPa | 0 mm | - | 313 W/m² | - |
| 1778259046 | 21.11° C | 88% | 1010.4 hPa | 0 mm | - | 334 W/m² | - |
* Rain latest hour (hover to see other rain measurements)
** Current wind speed in m/s (hover to see current wind gust speed)